Location: Woodstock
(35.2731°N, 89.9823°W)
Time: 22:59:34
(UTC+00:00)

Vanguard 1 - Visible Passes

Search period start: 15 February 2026 00:00
Search period end: 25 February 2026 00:00
Orbit: 652 x 3820 km, 34.3° (Epoch: 13 February)

Date Brightness Start Highest point End Pass type
(mag) Time Alt. Az. Time Alt. Az. Time Alt. Az.
15 Feb 12.8 01:22:43 10° W 01:41:25 83° SSW 01:55:33 34° ESE visible
15 Feb 12.9 03:46:51 10° WNW 04:08:08 58° SSW 04:08:08 58° SSW visible
15 Feb 14.0 06:15:59 10° W 06:20:42 16° W 06:20:42 16° W visible
16 Feb 12.8 01:42:21 10° W 02:01:25 79° SSW 02:13:53 39° ESE visible
16 Feb 13.1 04:06:51 10° WNW 04:26:28 49° SW 04:26:28 49° SW visible
16 Feb 14.2 06:38:39 10° W 06:39:04 10° W 06:39:04 10° W visible
16 Feb 12.7 23:39:40 10° W 23:54:26 87° S 00:17:54 10° E visible
17 Feb 12.8 02:02:00 10° W 02:21:18 73° SSW 02:32:18 42° SE visible
17 Feb 13.3 04:27:04 10° W 04:44:54 41° SW 04:44:54 41° SW visible
17 Feb 12.7 23:59:10 10° W 00:14:23 86° S 00:38:01 10° E visible
18 Feb 12.9 02:21:40 10° WNW 02:41:05 66° SSW 02:50:47 44° SE visible
18 Feb 13.5 04:47:37 10° W 05:03:23 33° SW 05:03:23 33° SW visible
19 Feb 12.7 00:18:40 10° W 00:34:20 83° S 00:56:45 13° ESE visible
19 Feb 13.0 02:41:25 10° WNW 03:00:44 58° SSW 03:09:22 43° SSE visible
19 Feb 13.7 05:08:45 10° W 05:21:58 25° WSW 05:21:58 25° WSW visible
20 Feb 12.7 00:38:10 10° W 00:54:14 79° SSW 01:15:25 15° ESE visible
20 Feb 13.2 03:01:16 10° WNW 03:20:17 50° SW 03:28:02 40° S visible
20 Feb 13.9 05:30:57 10° W 05:40:38 18° WSW 05:40:38 18° WSW visible
21 Feb 12.8 00:57:43 10° W 01:14:04 73° SSW 01:34:10 17° ESE visible
21 Feb 13.3 03:21:20 10° W 03:39:45 42° SW 03:46:48 36° S visible
21 Feb 14.1 05:55:42 10° WSW 05:59:25 12° WSW 05:59:25 12° WSW visible
22 Feb 12.9 01:17:16 10° W 01:33:50 65° SSW 01:53:02 18° SE visible
22 Feb 13.5 03:41:43 10° W 03:59:07 34° SW 04:05:40 30° SSW visible
23 Feb 13.0 01:36:53 10° W 01:53:32 58° SSW 02:12:01 19° SE visible
23 Feb 13.7 04:02:38 10° W 04:18:27 27° SW 04:24:40 24° SSW visible
24 Feb 13.2 01:56:38 10° W 02:13:10 49° SSW 02:31:09 18° SSE visible
24 Feb 13.9 04:24:29 10° W 04:37:45 20° SW 04:43:49 18° SSW visible
